Total_Precipitation_Accumulation
0.00 0.00 0.00 0.00 0.00 0.00 0.00 0.00 0.00 0.00 0.00 0.00 0.00 0.00 0.00 0.00 0.00 0.00 0.00 0.00 0.00 0.00 0.00 0.00 0.00 0.00 0.00 0.00 0.00 0.00 0.00 0.00 0.00 0.00 0.00 0.00 0.00 0.00 0.00 0.00 0.00 0.00 0.00 0.00 0.00 0.00 0.00
0.00 0.00 0.00 0.00 0.00 0.00 0.00 0.00 0.00 0.00 0.00 0.00 0.00 0.00 0.00 0.00 0.00 0.00 0.00 0.00 0.00 0.00 0.00 0.00 0.00 0.00 0.00 0.00 0.00 0.00 0.00 0.00 0.00 0.00 0.00 0.00 0.00 0.00 0.00 0.00 0.00 0.00 0.00 0.00 0.00 0.00 0.00
0.00 0.00 0.00 0.00 0.00 0.00 0.00 0.00 0.00 0.00 0.00 0.00 0.00 0.00 0.00 0.00 0.01 0.00 0.00 0.00 0.00 0.00 0.00 0.00 0.00 0.00 0.00 0.00 0.00 0.00 0.00 0.00 0.00 0.00 0.00 0.00 0.00 0.00 0.00 0.00 0.00 0.00 0.00 0.00 0.00 0.00 0.00
0.06 0.03 0.01 0.00 0.00 0.00 0.00 0.00 0.00 0.00 0.00 0.00 0.00 0.00 0.01 0.01 0.00 0.00 0.00 0.00 0.00 0.00 0.00 0.01 0.01 0.00 0.00 0.00 0.00 0.00 0.00 0.00 0.00 0.00 0.00 0.00 0.00 0.00 0.00 0.00 0.00 0.00 0.00 0.00 0.00 0.00 0.00
0.18 0.26 0.26 0.22 0.15 0.11 0.09 0.06 0.04 0.02 0.01 0.01 0.01 0.01 0.01 0.01 0.00 0.00 0.00 0.00 0.00 0.00 0.01 0.02 0.01 0.00 0.00 0.00 0.00 0.00 0.00 0.00 0.00 0.00 0.00 0.00 0.00 0.00 0.00 0.00 0.00 0.00 0.00 0.00 0.00 0.00 0.00
0.41 0.38 0.36 0.41 0.39 0.38 0.35 0.31 0.28 0.24 0.20 0.17 0.14 0.10 0.05 0.02 0.01 0.00 0.00 0.00 0.00 0.00 0.00 0.00 0.00 0.00 0.00 0.00 0.00 0.00 0.00 0.00 0.00 0.00 0.00 0.00 0.00 0.00 0.00 0.00 0.00 0.00 0.00 0.00 0.00 0.00 0.00
0.48 0.45 0.43 0.42 0.39 0.36 0.34 0.31 0.27 0.24 0.22 0.22 0.19 0.16 0.11 0.07 0.04 0.03 0.01 0.00 0.01 0.00 0.00 0.00 0.00 0.00 0.00 0.00 0.00 0.00 0.00 0.00 0.00 0.00 0.00 0.00 0.00 0.00 0.00 0.00 0.00 0.00 0.00 0.00 0.00 0.00 0.00
0.51 0.47 0.41 0.33 0.31 0.32 0.33 0.34 0.33 0.31 0.27 0.22 0.18 0.15 0.12 0.09 0.06 0.04 0.01 0.01 0.01 0.01 0.01 0.00 0.00 0.00 0.00 0.00 0.00 0.00 0.00 0.00 0.00 0.00 0.00 0.00 0.00 0.00 0.00 0.00 0.00 0.00 0.00 0.00 0.00 0.00 0.00
0.67 0.61 0.51 0.40 0.33 0.30 0.27 0.25 0.24 0.25 0.25 0.25 0.22 0.17 0.11 0.08 0.05 0.03 0.01 0.01 0.01 0.01 0.03 0.00 0.00 0.00 0.00 0.00 0.00 0.00 0.00 0.00 0.00 0.00 0.00 0.00 0.00 0.00 0.00 0.00 0.00 0.00 0.00 0.00 0.00 0.00 0.00
0.58 0.57 0.60 0.60 0.58 0.55 0.47 0.38 0.31 0.26 0.25 0.24 0.19 0.16 0.11 0.07 0.05 0.02 0.05 0.03 0.01 0.02 0.12 0.01 0.00 0.00 0.00 0.00 0.00 0.00 0.00 0.00 0.00 0.00 0.00 0.00 0.00 0.00 0.00 0.00 0.00 0.00 0.00 0.00 0.00 0.00 0.00
0.51 0.51 0.51 0.53 0.56 0.60 0.59 0.54 0.49 0.45 0.38 0.30 0.19 0.14 0.09 0.06 0.03 0.04 0.08 0.04 0.06 0.23 0.61 0.02 0.00 0.00 0.00 0.00 0.00 0.00 0.00 0.00 0.00 0.00 0.00 0.00 0.00 0.00 0.00 0.00 0.00 0.00 0.00 0.00 0.00 0.00 0.00
0.39 0.48 0.57 0.59 0.51 0.43 0.39 0.39 0.42 0.36 0.34 0.33 0.25 0.18 0.14 0.06 0.04 0.03 0.04 0.08 0.32 0.97 0.71 0.00 0.00 0.00 0.00 0.00 0.00 0.00 0.00 0.00 0.00 0.00 0.00 0.00 0.00 0.00 0.00 0.00 0.00 0.00 0.00 0.00 0.00 0.01 0.05
0.19 0.25 0.31 0.38 0.45 0.49 0.49 0.46 0.43 0.52 0.51 0.41 0.34 0.32 0.32 0.10 0.04 0.02 0.12 0.63 1.53 1.20 0.08 0.00 0.00 0.00 0.00 0.00 0.00 0.00 0.00 0.00 0.00 0.00 0.00 0.00 0.00 0.00 0.00 0.00 0.00 0.00 0.00 0.01 0.03 0.04 0.07
0.19 0.18 0.19 0.22 0.22 0.27 0.33 0.41 0.44 0.47 0.56 0.70 0.67 0.59 0.47 0.23 0.10 0.10 0.42 1.62 1.93 0.29 0.00 0.00 0.00 0.00 0.00 0.00 0.00 0.00 0.00 0.00 0.00 0.00 0.00 0.00 0.00 0.00 0.00 0.00 0.00 0.00 0.01 0.01 0.02 0.01 0.00
0.20 0.21 0.21 0.22 0.22 0.18 0.18 0.24 0.32 0.39 0.52 0.75 1.06 0.92 0.72 0.29 0.22 0.50 0.81 1.87 0.82 0.04 0.00 0.00 0.01 0.04 0.02 0.00 0.00 0.00 0.00 0.00 0.00 0.01 0.00 0.00 0.00 0.00 0.00 0.00 0.00 0.00 0.00 0.00 0.07 0.06 0.09
0.11 0.15 0.17 0.18 0.17 0.18 0.18 0.14 0.14 0.23 0.38 0.67 1.00 1.21 0.82 0.19 0.34 1.20 1.79 1.15 0.16 0.00 0.01 0.02 0.05 0.03 0.02 0.00 0.03 0.01 0.02 0.01 0.00 0.02 0.01 0.01 0.00 0.00 0.00 0.00 0.00 0.00 0.02 0.15 0.44 0.66 0.36
0.09 0.10 0.11 0.15 0.17 0.17 0.17 0.18 0.16 0.16 0.28 0.58 0.84 1.31 0.52 0.27 0.87 1.81 2.02 0.81 0.09 0.00 0.01 0.05 0.10 0.12 0.05 0.01 0.08 0.07 0.13 0.03 0.00 0.00 0.01 0.01 0.02 0.00 0.00 0.00 0.01 0.01 0.03 0.13 0.26 0.41 0.42
0.07 0.08 0.09 0.10 0.13 0.16 0.17 0.17 0.18 0.22 0.35 0.52 0.63 0.87 0.26 0.33 1.43 2.18 1.28 0.38 0.10 0.01 0.03 0.06 0.07 0.09 0.09 0.08 0.14 0.14 0.13 0.16 0.06 0.02 0.05 0.08 0.17 0.09 0.02 0.01 0.04 0.07 0.12 0.12 0.31 0.34 0.29
0.08 0.08 0.07 0.06 0.06 0.07 0.09 0.14 0.21 0.31 0.52 0.66 0.76 0.44 0.24 0.48 1.06 0.99 0.59 0.31 0.22 0.18 0.12 0.34 0.24 0.07 0.03 0.09 0.19 0.13 0.18 0.25 0.21 0.21 0.20 0.18 0.35 0.19 0.06 0.08 0.09 0.15 0.24 0.34 0.46 0.50 0.46
0.11 0.10 0.08 0.06 0.06 0.08 0.08 0.09 0.12 0.18 0.35 0.76 0.85 0.68 0.46 1.08 0.66 0.25 0.34 0.46 0.46 0.36 0.23 0.31 0.51 0.32 0.25 0.16 0.10 0.12 0.06 0.09 0.07 0.15 0.28 0.51 0.77 0.40 0.19 0.08 0.14 0.14 0.06 0.05 0.18 0.40 0.24
0.15 0.13 0.11 0.08 0.06 0.06 0.07 0.08 0.10 0.12 0.26 0.82 1.16 0.65 0.28 0.53 0.68 0.42 0.25 0.43 0.29 0.26 0.29 0.18 0.43 0.35 0.35 0.45 0.28 0.17 0.04 0.02 0.03 0.02 0.03 0.26 0.64 0.28 0.21 0.16 0.13 0.10 0.02 0.00 0.05 0.09 0.18
0.20 0.17 0.16 0.12 0.09 0.07 0.06 0.09 0.11 0.12 0.25 0.55 0.89 0.55 0.36 0.25 0.14 0.43 0.88 0.78 0.35 0.31 0.60 0.47 0.42 0.22 0.29 0.50 0.46 0.42 0.30 0.18 0.09 0.05 0.03 0.10 0.20 0.10 0.10 0.02 0.05 0.10 0.03 0.00 0.00 0.00 0.00
0.27 0.25 0.23 0.19 0.13 0.07 0.07 0.11 0.14 0.15 0.13 0.16 0.19 0.33 0.61 0.39 0.20 0.37 0.45 0.47 0.39 0.42 0.45 0.43 0.54 0.67 0.56 0.42 0.37 0.34 0.35 0.38 0.35 0.29 0.21 0.19 0.23 0.23 0.19 0.00 0.11 0.35 0.06 0.00 0.00 0.00 0.01
0.31 0.31 0.25 0.22 0.18 0.11 0.10 0.13 0.12 0.12 0.06 0.01 0.09 0.26 0.50 0.50 0.40 0.33 0.27 0.29 0.34 0.42 0.64 0.33 0.26 0.36 0.28 0.26 0.23 0.19 0.20 0.17 0.17 0.14 0.24 0.36 0.25 0.42 0.37 0.21 0.51 0.08 0.00 0.00 0.00 0.01 0.00
0.27 0.28 0.33 0.31 0.26 0.18 0.15 0.14 0.12 0.09 0.06 0.01 0.03 0.21 0.42 0.33 0.19 0.27 0.34 0.29 0.22 0.29 0.39 0.32 0.27 0.28 0.29 0.37 0.51 0.39 0.22 0.17 0.07 0.06 0.06 0.18 0.34 0.37 0.35 0.23 0.11 0.01 0.00 0.00 0.03 0.01 0.00
0.29 0.21 0.21 0.30 0.39 0.29 0.19 0.16 0.14 0.12 0.10 0.08 0.03 0.11 0.24 0.31 0.22 0.20 0.45 0.43 0.33 0.23 0.27 0.35 0.20 0.12 0.27 0.36 0.47 0.35 0.23 0.19 0.11 0.06 0.03 0.09 0.29 0.65 0.46 0.31 0.09 0.00 0.00 0.03 0.09 0.12 0.06
0.23 0.19 0.16 0.17 0.18 0.35 0.43 0.25 0.18 0.16 0.14 0.11 0.05 0.08 0.15 0.19 0.06 0.10 0.17 0.24 0.28 0.20 0.25 0.23 0.19 0.15 0.25 0.39 0.48 0.31 0.14 0.09 0.13 0.10 0.13 0.25 0.50 0.82 0.71 0.76 0.33 0.04 0.02 0.02 0.10 0.13 0.07
0.20 0.21 0.19 0.19 0.14 0.13 0.24 0.58 0.52 0.25 0.18 0.18 0.06 0.08 0.12 0.10 0.02 0.03 0.03 0.01 0.02 0.09 0.18 0.23 0.21 0.23 0.45 0.71 0.71 0.53 0.36 0.20 0.08 0.04 0.08 0.21 0.36 0.39 0.57 0.70 0.36 0.10 0.13 0.17 0.14 0.05 0.03
0.28 0.22 0.25 0.19 0.21 0.14 0.14 0.18 0.53 0.66 0.28 0.26 0.10 0.09 0.16 0.18 0.07 0.05 0.02 0.01 0.01 0.01 0.05 0.12 0.16 0.16 0.37 0.59 0.68 0.54 0.43 0.28 0.18 0.16 0.11 0.14 0.19 0.29 0.31 0.38 0.31 0.20 0.08 0.02 0.01 0.01 0.00